Vorticity
1 6 8 8 13 15 17 13 11 8 10 14 16 19 28 27 29 24 24 22 14 9 10 11 10 10 8 8 9 11 15 14 29 7 6 -6 17 23 12 9 -15 2 10
5 7 12 15 13 12 11 8 13 14 12 14 16 28 27 23 24 19 10 9 11 10 7 8 10 11 13 14 11 10 7 9 16 25 2 13 17 13 2 0 7 -6 5
9 15 14 10 8 14 7 11 11 10 14 22 30 21 20 20 9 9 11 10 10 10 10 10 10 9 7 7 9 11 13 13 16 12 20 6 9 20 17 8 14 23 12
14 14 11 9 8 19 9 13 14 19 21 24 15 18 18 11 8 12 7 8 12 15 16 17 17 15 14 11 9 8 7 9 11 16 15 21 17 16 8 3 6 11 17
9 7 5 5 8 12 10 17 18 18 17 15 21 18 11 9 11 6 10 13 17 19 18 17 16 17 18 17 16 15 10 10 10 8 11 18 16 19 23 18 13 9 15
8 12 10 12 9 23 20 18 15 12 22 29 19 13 8 10 5 8 15 18 18 20 22 22 21 17 15 19 17 16 18 17 11 12 7 12 13 16 16 17 18 17 15
10 10 9 21 11 20 14 11 14 33 29 16 14 9 11 5 8 16 19 16 16 17 18 17 16 20 23 22 19 20 18 17 18 14 13 7 9 9 9 9 11 8 11
11 8 23 5 40 -10 8 15 43 28 11 14 7 10 7 8 15 18 15 14 14 13 15 15 12 13 14 21 21 23 24 20 18 16 12 12 9 11 12 12 14 16 18
8 21 16 18 -1 16 23 34 10 12 8 5 11 7 8 15 16 14 16 16 17 18 19 18 11 12 16 24 21 20 22 23 18 21 15 14 14 15 15 16 20 18 19
14 22 16 17 35 30 22 11 21 12 6 12 9 7 13 16 14 16 18 17 21 25 25 19 16 22 33 25 19 20 24 22 17 20 17 15 18 21 18 21 23 24 23
23 16 23 30 41 47 31 16 15 7 12 11 7 13 16 14 16 20 11 25 30 27 23 27 30 27 24 19 20 28 25 21 20 15 16 20 13 7 4 4 4 3 5
17 27 38 41 36 22 7 10 6 11 12 9 9 15 15 14 20 14 20 31 27 27 23 27 24 27 24 26 28 26 24 18 16 16 11 5 7 12 18 23 24 24 23
27 43 34 27 6 17 2 4 8 12 9 6 17 12 15 17 17 19 26 16 15 14 13 11 11 9 8 18 22 21 17 15 12 5 9 17 27 24 17 13 17 18 22
39 31 16 -1 22 3 2 4 9 10 9 8 18 10 15 18 18 25 15 9 8 12 15 16 18 27 26 23 23 24 17 7 11 20 22 14 7 6 7 8 7 8 11
26 9 3 13 10 3 3 3 10 9 8 12 17 8 16 17 22 22 10 7 10 15 15 17 17 15 13 16 20 15 12 19 13 6 6 5 5 5 5 5 6 7 8
9 7 7 14 9 3 2 5 10 8 7 16 16 9 16 16 22 19 7 7 11 14 11 12 12 10 8 9 11 17 16 9 2 7 5 4 5 6 6 6 8 7 6
9 6 10 16 8 4 2 6 11 7 6 17 17 14 12 17 20 16 9 7 7 8 11 11 9 9 9 7 9 10 16 8 4 7 3 3 5 5 6 7 7 7 6
8 6 9 14 11 7 5 5 11 6 5 15 24 9 12 17 16 19 11 7 7 6 8 13 12 10 9 6 6 8 9 11 11 10 4 4 5 6 5 6 7 6 5
7 7 9 13 12 9 6 5 12 5 5 13 24 11 11 11 18 15 19 13 6 4 4 6 10 14 13 11 11 10 12 11 13 7 3 5 6 6 4 5 7 7 5
8 6 3 9 13 10 8 6 13 4 7 7 26 13 8 16 10 19 15 19 17 6 4 3 4 5 10 14 13 12 13 12 11 11 7 6 8 7 4 5 6 8 8
11 9 7 9 12 10 7 10 11 4 7 8 20 21 8 9 16 10 18 19 15 23 9 4 3 2 3 5 7 14 16 13 12 10 10 11 8 5 6 7 6 6 7
11 12 9 11 13 10 6 12 7 4 6 9 12 26 14 7 9 13 13 15 19 15 22 18 7 5 3 2 3 4 7 8 11 13 13 13 10 7 7 7 7 7 7
8 13 8 12 11 9 9 13 7 3 7 10 11 21 23 10 6 8 11 15 14 18 17 18 22 14 6 5 4 3 4 5 6 6 6 7 10 10 8 9 9 9 8
12 12 13 12 10 9 14 9 4 6 8 10 10 20 23 18 11 8 10 14 20 17 17 16 17 22 18 11 8 6 5 5 5 4 5 6 6 5 6 7 5 4 4
11 12 12 10 9 14 12 6 6 7 7 10 8 18 24 17 15 8 10 14 18 20 17 14 15 16 18 23 17 11 8 8 7 7 7 6 5 6 6 5 5 4 5
14 12 11 8 13 15 8 7 6 7 7 7 10 11 26 15 14 11 11 12 17 18 19 15 12 15 14 13 17 21 17 13 11 9 8 8 9 9 8 8 9 7 6
Height
5669 5658 5646 5634 5622 5611 5601 5588 5577 5567 5554 5542 5529 5515 5500 5489 5482 5473 5466 5461 5456 5453 5449 5444 5441 5438 5436 5435 5434 5433 5434 5435 5439 5443 5446 5449 5455 5458 5461 5462 5467 5471 5475
5650 5638 5626 5613 5601 5589 5578 5566 5554 5543 5530 5518 5506 5494 5483 5473 5465 5458 5453 5448 5444 5439 5434 5431 5427 5423 5421 5420 5419 5419 5420 5421 5423 5426 5431 5435 5437 5440 5443 5445 5447 5452 5455
5633 5619 5606 5594 5581 5569 5555 5544 5532 5521 5508 5495 5483 5474 5467 5459 5452 5446 5442 5435 5430 5425 5420 5416 5412 5408 5406 5404 5404 5404 5404 5406 5408 5412 5416 5419 5422 5426 5428 5431 5433 5437 5443
5611 5599 5585 5573 5561 5549 5535 5523 5510 5497 5486 5477 5468 5460 5453 5447 5440 5435 5428 5421 5415 5409 5403 5398 5394 5390 5388 5387 5387 5387 5389 5392 5394 5396 5400 5403 5405 5409 5411 5415 5418 5420 5427
5590 5577 5567 5553 5541 5530 5514 5502 5490 5480 5471 5463 5454 5445 5439 5433 5427 5421 5412 5403 5397 5391 5385 5379 5375 5372 5369 5368 5367 5370 5372 5375 5379 5383 5386 5388 5391 5393 5396 5400 5404 5406 5410
5568 5556 5543 5532 5520 5508 5495 5484 5475 5466 5456 5448 5440 5433 5427 5420 5414 5406 5396 5387 5379 5373 5368 5363 5358 5355 5352 5349 5350 5352 5356 5359 5363 5368 5372 5375 5378 5379 5382 5385 5388 5391 5395
5552 5540 5524 5513 5500 5493 5479 5471 5460 5450 5442 5435 5428 5422 5415 5407 5400 5391 5381 5373 5365 5358 5352 5347 5343 5340 5336 5333 5335 5336 5340 5343 5347 5353 5358 5362 5365 5368 5370 5373 5375 5377 5379
5533 5520 5509 5493 5482 5475 5463 5455 5447 5438 5432 5426 5419 5412 5405 5395 5384 5375 5368 5359 5352 5345 5338 5333 5329 5327 5323 5321 5321 5323 5325 5330 5334 5339 5344 5350 5353 5356 5358 5360 5362 5363 5365
5518 5508 5495 5487 5475 5462 5452 5443 5436 5431 5424 5419 5410 5402 5393 5384 5374 5365 5356 5347 5339 5332 5325 5320 5316 5314 5311 5308 5309 5311 5313 5317 5322 5328 5333 5339 5342 5344 5346 5348 5349 5350 5353
5498 5490 5479 5467 5457 5447 5440 5434 5430 5424 5417 5411 5402 5393 5383 5373 5363 5354 5344 5335 5327 5320 5313 5308 5304 5301 5299 5298 5299 5301 5304 5307 5313 5320 5325 5330 5333 5335 5336 5338 5339 5340 5341
5486 5473 5461 5450 5442 5435 5430 5427 5423 5417 5411 5404 5396 5386 5375 5365 5355 5345 5336 5327 5318 5311 5305 5300 5296 5293 5291 5291 5292 5294 5297 5301 5308 5314 5319 5324 5327 5329 5330 5331 5332 5332 5333
5470 5458 5446 5436 5431 5428 5425 5422 5418 5411 5404 5397 5389 5379 5369 5358 5348 5340 5330 5321 5314 5307 5302 5297 5294 5291 5290 5289 5290 5291 5295 5300 5305 5311 5316 5320 5323 5324 5325 5325 5325 5325 5324
5457 5446 5438 5432 5428 5425 5421 5417 5411 5405 5398 5390 5381 5372 5363 5353 5344 5335 5328 5322 5315 5310 5304 5300 5296 5293 5292 5291 5291 5292 5295 5300 5305 5310 5313 5316 5318 5320 5321 5321 5321 5320 5318
5447 5440 5434 5430 5426 5421 5417 5412 5406 5399 5392 5383 5374 5366 5358 5349 5341 5334 5328 5323 5317 5312 5307 5303 5299 5296 5294 5293 5294 5296 5298 5302 5306 5309 5313 5315 5317 5318 5319 5319 5318 5317 5314
5440 5435 5430 5426 5422 5418 5413 5408 5401 5394 5386 5378 5369 5361 5354 5347 5339 5333 5329 5325 5320 5315 5311 5307 5303 5301 5299 5298 5299 5300 5302 5304 5307 5310 5313 5315 5316 5316 5317 5316 5316 5314 5311
5435 5431 5426 5422 5418 5414 5409 5403 5397 5389 5382 5374 5365 5358 5351 5343 5337 5333 5329 5325 5321 5317 5314 5311 5308 5306 5305 5304 5304 5304 5305 5307 5309 5311 5313 5314 5315 5315 5315 5315 5314 5312 5309
5430 5426 5421 5417 5413 5409 5404 5399 5393 5386 5378 5370 5363 5356 5349 5342 5336 5332 5329 5326 5323 5319 5316 5314 5312 5310 5309 5308 5307 5307 5308 5309 5311 5311 5312 5313 5313 5314 5313 5313 5311 5309 5307
5425 5421 5416 5412 5408 5404 5399 5394 5388 5381 5374 5367 5359 5353 5346 5340 5335 5330 5328 5325 5323 5320 5318 5315 5313 5311 5310 5309 5309 5308 5309 5310 5310 5311 5312 5312 5312 5312 5311 5310 5309 5307 5306
5419 5415 5410 5406 5402 5398 5394 5388 5383 5377 5370 5362 5354 5348 5342 5337 5333 5329 5325 5323 5321 5320 5318 5315 5313 5311 5310 5309 5308 5308 5308 5308 5309 5309 5310 5310 5310 5310 5309 5308 5307 5306 5304
5412 5409 5405 5401 5397 5393 5388 5384 5378 5372 5366 5359 5351 5345 5340 5334 5330 5326 5322 5319 5318 5317 5315 5314 5313 5311 5309 5308 5307 5307 5307 5306 5307 5307 5308 5308 5308 5307 5307 5306 5305 5304 5303
5406 5402 5398 5395 5391 5387 5383 5379 5373 5368 5361 5354 5348 5341 5336 5331 5326 5322 5318 5315 5313 5311 5311 5310 5310 5309 5308 5307 5306 5305 5305 5304 5304 5304 5304 5304 5304 5304 5304 5303 5302 5301 5300
5399 5395 5392 5388 5385 5381 5377 5373 5368 5363 5357 5350 5344 5338 5332 5328 5323 5318 5314 5311 5308 5306 5304 5304 5304 5304 5304 5303 5303 5302 5302 5301 5301 5301 5300 5300 5300 5300 5300 5299 5298 5297 5296
5392 5389 5385 5382 5379 5375 5371 5367 5363 5358 5352 5346 5339 5333 5327 5323 5319 5314 5309 5305 5302 5299 5298 5297 5296 5296 5297 5297 5297 5297 5297 5297 5297 5297 5296 5296 5296 5295 5295 5295 5294 5293 5292
5386 5382 5379 5375 5372 5369 5365 5362 5357 5353 5347 5341 5334 5328 5322 5318 5314 5310 5305 5300 5296 5293 5291 5290 5289 5288 5288 5289 5290 5290 5291 5291 5291 5291 5291 5291 5290 5290 5289 5289 5289 5288 5287
5379 5376 5373 5370 5366 5363 5360 5356 5352 5347 5342 5336 5330 5323 5317 5312 5308 5304 5300 5295 5291 5287 5285 5283 5282 5281 5280 5280 5280 5281 5282 5282 5283 5283 5283 5283 5283 5283 5283 5282 5282 5281 5280
5373 5370 5367 5364 5360 5357 5354 5350 5346 5342 5337 5332 5325 5319 5312 5307 5303 5299 5295 5290 5286 5282 5279 5277 5275 5274 5273 5272 5272 5272 5272 5273 5273 5274 5274 5275 5275 5274 5274 5274 5273 5272 5271